Location: Parkland
(50.2500°N, 113.6667°W)
Time: 14:58:34
(UTC+00:00)

Tiangong - Pass Details

Date: 11 December 2021
Orbit: 383 x 386 km, 41.5° (Epoch: 23 January)

Event Time Altitude Azimuth Distance (km) Brightness Sun altitude
Rises 02:06:15 0° 230° (SW) 2,272 5.9 -23.5°
Reaches altitude 10° 02:08:56 10° 206° (SSW) 1,416 4.3 -23.9°
Enters shadow 02:09:35 12° 196° (SSW) 1,280 3.9 -24.0°
